Regional Weather Roundup
Issued by NWS Sterling, VA

Home | Current Version | Previous Version | Text Only | Print | Product List | Glossary Off
Versions: 1 2 3 4 5 6 7 8 9 10 11 12 13 14 15 16 17 18 19 20 21 22 23 24 25 26 27 28

000
ASUS41 KLWX 270511
RWRLWX

REGIONAL WEATHER ROUNDUP
NATIONAL WEATHER SERVICE BALTIMORE MD/WASHINGTON DC
100 AM EDT TUE JUN 27 2017

Note: "FAIR" indicates few or no clouds below 12,000 feet
with no significant weather and/or obstructions to visibility.
 TC=TEMPERATURE CELSIUS

 * =Non NWS site. Station does not report precipitation (e.g. rain,
    snow, etc.), thunder, or fog.

DCZ001-MDZ009-015-VAZ040>042-051-053>054-270600-
WASHINGTON METRO

CITY           SKY/WX    TMP DP  RH WIND       PRES   REMARKS
WASHINGTON NAT MOCLDY    75  53  46 NW10G17   30.01R
DULLES         PTCLDY    70  48  45 N8        30.01S
ANDREWS AFB    CLOUDY    70  60  69 SW8       29.99S
FT BELVOIR     MOCLDY    68  58  69 CALM      30.00R
QUANTICO       PTCLDY    67  58  72 NW7       30.01R
COLLEGE PARK*  CLOUDY    73  56  55 NW8       30.00R
LEESBURG*      CLEAR     70  54  56 CALM      30.02F
MANASSAS*      CLEAR     63  56  78 CALM      30.01F
GAITHERSBURG*  MOCLDY    68  51  54 CALM      30.02S

$$

MDZ006>007-011-014-270600-
BALTIMORE METRO

CITY           SKY/WX    TMP DP  RH WIND       PRES   REMARKS
BWI AIRPORT    CLOUDY    71  58  63 W6        29.99R
MD SCIENCE CTR   N/A     75  57  53 MISG      29.99S
MARTIN STATE   CLOUDY    73  63  68 W10       30.00R
ANNAPOLIS      MOCLDY    71  63  75 S6        29.97F
FORT MEADE*    CLOUDY    63  59  88 CALM      30.02R

$$

MDZ012-015-019>023-270600-
MARYLAND EASTERN SHORE

CITY           SKY/WX    TMP DP  RH WIND       PRES   REMARKS
OCEAN CITY     CLEAR     71  63  75 SW5       30.02S
SALISBURY      CLEAR     64  61  90 S6        30.01S
BAY BRIDGE AP* MOCLDY    75  63  64 S7        29.99S
CAMBRIDGE*     CLEAR     66  61  82 SE5       30.00S
EASTON*        CLEAR     70  58  66 S5        30.03S

$$

MDZ017>025-270600-
SOUTHERN MARYLAND

CITY           SKY/WX    TMP DP  RH WIND       PRES   REMARKS
PATUXENT RIVER CLEAR     71  62  73 S7        29.99S
ST INIGOES     CLEAR     73  62  68 S7        29.99S
LEONARDTOWN*   CLEAR     68  61  77 CALM      30.01F

$$

MDZ003>005-270600-
NORTH CENTRAL MARYLAND

CITY           SKY/WX    TMP DP  RH WIND       PRES   REMARKS
FREDERICK*     CLOUDY    66  54  63 CALM      30.03F
HAGERSTOWN APT MOCLDY    68  49  50 CALM      30.01F
WESTMINSTER*   CLOUDY    70  55  60 CALM      30.01F

$$

MDZ501>502-270600-
WESTERN MARYLAND

CITY           SKY/WX    TMP DP  RH WIND       PRES   REMARKS
OAKLAND*       NOT AVBL
CUMBERLAND*    CLOUDY    63  48  59 S3        30.07S

$$

VAZ025>031-270600-
SHENANDOAH VALLEY

CITY           SKY/WX    TMP DP  RH WIND       PRES   REMARKS
WINCHESTER*    CLEAR     59  48  67 CALM      30.03F
FRONT ROYAL*   PTCLDY    61  52  72 CALM      30.03S
LURAY*         CLEAR     59  54  82 W3        30.04S
NEW MARKET*    CLEAR     55  51  86 CALM      30.04F
STAUNTON*      CLEAR     54  49  85 CALM      30.08S
WAYNESBORO*    CLEAR     56  52  84 CALM      30.07F

$$

WVZ021-048>050-054>055-270600-
EASTERN WEST VIRGINIA PANHANDLE

CITY           SKY/WX    TMP DP  RH WIND       PRES   REMARKS
MARTINSBURG    PTCLDY    60  51  72 S5        30.02S
PETERSBURG*    MOCLDY    58  54  86 CALM      30.05F

$$

VAZ036>039-050-270600-
CENTRAL FOOTHILLS

CITY           SKY/WX    TMP DP  RH WIND       PRES   REMARKS
CHARLOTTESVILL CLEAR     64  54  69 CALM      30.02F
CULPEPER*      PTCLDY    59  57  94 CALM      30.02F
ORANGE*        CLEAR     59  54  82 CALM      30.02F
GORDONSVILLE*  CLEAR     58  57  95 CALM      30.01F
WARRENTON*     CLEAR     58  53  83 CALM      30.01S

$$

VAZ055>057-270600-
NORTH AND CENTRAL PIEDMONT

CITY           SKY/WX    TMP DP  RH WIND       PRES   REMARKS
FREDERICKSBRG* CLEAR     66  56  70 CALM      30.00S
STAFFORD*      CLEAR     60  56  87 CALM      30.05S

$$

NCZ024-NYZ072-PAZ021-071-VAZ022-071-270600-
OTHER REGIONAL OBSERVATIONS

CITY           SKY/WX    TMP DP  RH WIND       PRES   REMARKS
NEW YORK CITY  CLEAR     72  48  42 CALM      30.01S
PHILADELPHIA   PTCLDY    68  57  68 S5        29.98F
PITTSBURGH     LGT RAIN  62  50  64 SW8       30.02S
ROANOKE        CLOUDY    67  50  54 NW6       30.09S
RICHMOND       PTCLDY    67  55  65 S3        30.01F
RALEIGH        PTCLDY    66  59  78 CALM      30.04F

$$

ANZ530>537-270600-
MARINE OBSERVATIONS

STATION/POSITION TIME  TEMP    WIND        PRES
                       AIR SEA DIR/SP/G
                 (UTC) (F)     (DEG/KT/KT) (MB)
THOMAS PT LIGHT  0500   75 78  190/ 16/ 18   N/A
BALT KEY BRIDGE  0448   73     280/ 16/ 17 1015.0R
COVE POINT       0448   72     210/ 10/ 13 1016.3S
LEWISETTA        0448   71 79  220/  8/  9 1015.7F
SOLOMONS ISLAND  0448   73 79  200/  9/ 11   N/A
PINEY POINT      0448          210/ 11/ 12   N/A

$$





USA.gov is the U.S. government's official web portal to all federal, state and local government web resources and services.